Weather History for Aurora, CO

Change the Weather History Date:

Wednesday, November 21, 2012

  Actual Average Record
Temperature  
Mean Temperature 55 °F -  
Max Temperature 71 °F 47 °F 71 °F (2012)
Min Temperature 39 °F 24 °F 10 °F (2013)
Degree Days  
Heating Degree Days 10    
Growing Degree Days 5 (Base 50)    
Moisture  
Dew Point 13 °F    
Average Humidity 24    
Maximum Humidity 39    
Minimum Humidity 8    
Precipitation  
Precipitation 0.00 in - - ()
Sea Level Pressure  
Sea Level Pressure 29.88 in    
Wind  
Wind Speed 7 mph (SSW)    
Max Wind Speed 10 mph    
Max Gust Speed -    
Averages and records for this station are not official NWS values.
T = Trace of Precipitation, MM = Missing Value Source: NWS Daily Summary

Daily Weather History Graph

Daily Weather History Graph

Search for Another Location

Airport:

Trip Planner

Search our weather history database for the weather conditions in past years. The results will help you decide how hot, cold, wet, or windy it might be!

Date:

Astronomy

Nov. 21, 2012 Rise Set
Actual Time 6:50 AM MST 4:38 PM MST
Civil Twilight 6:21 AM MST 5:08 PM MST
Nautical Twilight 5:48 AM MST 5:41 PM MST
Astronomical Twilight 5:16 AM MST 6:13 PM MST
Moon 12:55 PM MST (11/21) 12:13 AM MST (11/21)
Length of Visible Light 10h 46m
Length of Day
9h 48m
Waxing Gibbous, 62% of the Moon is Illuminated
Nov 21
Waxing Gibbous
Nov 28
Full
Dec 6
Last Quarter
Dec 13
New
Dec 19
First Quarter

Hourly Weather History & Observations

Time (MST) Temp. Windchill Dew Point Humidity Pressure Visibility Wind Dir Wind Speed Gust Speed Precip Events Conditions
12:55 AM 44.6 °F 43.1 °F 14.0 °F 29% 29.95 in 25.0 mi SSW 3.5 mph - N/A   Partly Cloudy
1:55 AM 39.2 °F 32.5 °F 15.8 °F 39% 29.95 in 25.0 mi SSW 10.4 mph - N/A   Partly Cloudy
2:55 AM 41.0 °F 36.4 °F 15.8 °F 36% 29.94 in 25.0 mi SSW 6.9 mph - N/A   Partly Cloudy
3:55 AM 42.8 °F 38.0 °F 14.0 °F 31% 29.93 in 25.0 mi South 8.1 mph - N/A   Partly Cloudy
4:55 AM 41.0 °F 34.7 °F 15.8 °F 36% 29.95 in 25.0 mi South 10.4 mph - N/A   Partly Cloudy
5:55 AM 41.0 °F 34.7 °F 15.8 °F 36% 29.99 in 25.0 mi South 10.4 mph - N/A   Partly Cloudy
6:55 AM 41.0 °F 35.2 °F 15.8 °F 36% 29.98 in 70.0 mi South 9.2 mph - N/A   Partly Cloudy
7:55 AM 46.4 °F 41.9 °F 17.6 °F 32% 29.99 in 70.0 mi South 9.2 mph - N/A   Scattered Clouds
8:55 AM 53.6 °F - 15.8 °F 22% 29.96 in 70.0 mi SSW 6.9 mph - N/A   Scattered Clouds
9:55 AM 59.0 °F - 14.0 °F 17% 29.93 in 70.0 mi SSW 10.4 mph - N/A   Scattered Clouds
10:55 AM 62.6 °F - 14.0 °F 15% 29.91 in 70.0 mi SSW 4.6 mph - N/A   Scattered Clouds
11:55 AM 64.4 °F - 14.0 °F 14% 29.85 in 70.0 mi WSW 8.1 mph - N/A   Scattered Clouds
12:55 PM 68.0 °F - 12.2 °F 12% 29.81 in 70.0 mi SSW 2.3 mph - N/A   Scattered Clouds
1:55 PM 69.8 °F - 5.0 °F 8% 29.78 in 70.0 mi NE 2.3 mph - N/A   Scattered Clouds
2:55 PM 71.6 °F - 8.6 °F 9% 29.76 in 70.0 mi NNE 3.5 mph - N/A   Scattered Clouds
3:55 PM 64.4 °F - 17.6 °F 16% 29.78 in 70.0 mi North 8.1 mph - N/A   Scattered Clouds
4:55 PM 59.0 °F - 14.0 °F 17% 29.81 in 25.0 mi North 5.8 mph - N/A   Scattered Clouds
5:55 PM 59.0 °F - 8.6 °F 14% 29.81 in 25.0 mi NE 2.3 mph - N/A   Scattered Clouds
6:55 PM 48.2 °F - 14.0 °F 25% 29.86 in 25.0 mi SW 8.1 mph - N/A   Scattered Clouds
7:55 PM 44.6 °F 39.2 °F 15.8 °F 31% 29.87 in 25.0 mi South 10.4 mph - N/A   Scattered Clouds
8:55 PM 44.6 °F 40.2 °F 15.8 °F 31% 29.83 in 25.0 mi SSW 8.1 mph - N/A   Scattered Clouds
9:55 PM 46.4 °F 41.9 °F 12.2 °F 25% 29.81 in 25.0 mi SSW 9.2 mph - N/A   Mostly Cloudy
10:55 PM 44.6 °F 40.2 °F 8.6 °F 23% 29.79 in 25.0 mi South 8.1 mph - N/A   Mostly Cloudy
11:55 PM 42.8 °F 37.5 °F 6.8 °F 23% 29.80 in 25.0 mi SSW 9.2 mph - N/A   Mostly Cloudy